Time,TemperatureF,DewpointF,PressureIn,WindDirection,WindDirectionDegrees,WindSpeedMPH,WindSpeedGustMPH,Humidity,HourlyPrecipIn,Conditions,Clouds,dailyrainin,SoftwareType,DateUTC
2013-09-30 00:22:00,40.0,-99.9,-100.00,North,-999,-999.0,-999.0,-999,0.03,,,0.57,,2013-09-30 06:22:00,
2013-09-30 00:32:00,40.0,-99.9,-100.00,North,-999,-999.0,-999.0,-999,0.03,,,0.57,,2013-09-30 06:32:00,
2013-09-30 00:42:00,40.0,-99.9,-100.00,North,-999,-999.0,-999.0,-999,0.03,,,0.57,,2013-09-30 06:42:00,
2013-09-30 01:22:00,41.0,-99.9,-100.00,North,-999,-999.0,-999.0,-999,0.05,,,0.62,,2013-09-30 07:22:00,
2013-09-30 01:32:00,41.0,-99.9,-100.00,North,-999,-999.0,-999.0,-999,0.05,,,0.62,,2013-09-30 07:32:00,
2013-09-30 01:42:00,41.0,-99.9,-100.00,North,-999,-999.0,-999.0,-999,0.05,,,0.62,,2013-09-30 07:42:00,
2013-09-30 02:22:00,41.0,-99.9,-100.00,North,-999,-999.0,-999.0,-999,0.04,,,0.66,,2013-09-30 08:22:00,
2013-09-30 02:32:00,41.0,-99.9,-100.00,North,-999,-999.0,-999.0,-999,0.04,,,0.66,,2013-09-30 08:32:00,
2013-09-30 02:42:00,41.0,-99.9,-100.00,North,-999,-999.0,-999.0,-999,0.04,,,0.66,,2013-09-30 08:42:00,
2013-09-30 03:22:00,42.0,-99.9,-100.00,North,-999,-999.0,-999.0,-999,0.06,,,0.72,,2013-09-30 09:22:00,
2013-09-30 03:33:00,42.0,-99.9,-100.00,North,-999,-999.0,-999.0,-999,0.06,,,0.72,,2013-09-30 09:33:00,
2013-09-30 03:42:00,42.0,-99.9,-100.00,North,-999,-999.0,-999.0,-999,0.06,,,0.72,,2013-09-30 09:42:00,
2013-09-30 04:43:00,42.0,-99.9,-100.00,North,-999,-999.0,-999.0,-999,0.16,,,0.88,,2013-09-30 10:43:00,
2013-09-30 05:23:00,43.0,-99.9,-100.00,North,-999,-999.0,-999.0,-999,0.13,,,1.01,,2013-09-30 11:23:00,
2013-09-30 05:33:00,43.0,-99.9,-100.00,North,-999,-999.0,-999.0,-999,0.13,,,1.01,,2013-09-30 11:33:00,
2013-09-30 05:43:00,43.0,-99.9,-100.00,North,-999,-999.0,-999.0,-999,0.13,,,1.01,,2013-09-30 11:43:00,
2013-09-30 06:22:00,43.0,-99.9,-100.00,North,-999,-999.0,-999.0,-999,0.14,,,1.15,,2013-09-30 12:22:00,
2013-09-30 06:32:00,43.0,-99.9,-100.00,North,-999,-999.0,-999.0,-999,0.14,,,1.15,,2013-09-30 12:32:00,
2013-09-30 06:42:00,43.0,-99.9,-100.00,North,-999,-999.0,-999.0,-999,0.14,,,1.15,,2013-09-30 12:42:00,
2013-09-30 07:22:00,44.0,-99.9,-100.00,North,-999,-999.0,-999.0,-999,0.11,,,1.26,,2013-09-30 13:22:00,
2013-09-30 07:32:00,44.0,-99.9,-100.00,North,-999,-999.0,-999.0,-999,0.11,,,1.26,,2013-09-30 13:32:00,
2013-09-30 07:42:00,44.0,-99.9,-100.00,North,-999,-999.0,-999.0,-999,0.11,,,1.26,,2013-09-30 13:42:00,
2013-09-30 08:22:00,45.0,-99.9,-100.00,North,-999,-999.0,-999.0,-999,0.04,,,1.29,,2013-09-30 14:22:00,
2013-09-30 08:32:00,45.0,-99.9,-100.00,North,-999,-999.0,-999.0,-999,0.04,,,1.29,,2013-09-30 14:32:00,
2013-09-30 08:42:00,45.0,-99.9,-100.00,North,-999,-999.0,-999.0,-999,0.04,,,1.29,,2013-09-30 14:42:00,
2013-09-30 08:45:00,44.0,-99.9,-100.00,North,-999,-999.0,-999.0,-999,0.07,,,1.35,,2013-09-30 14:45:00,
2013-09-30 09:23:00,44.0,-99.9,-100.00,North,-999,-999.0,-999.0,-999,0.07,,,1.35,,2013-09-30 15:23:00,
2013-09-30 09:34:00,44.0,-99.9,-100.00,North,-999,-999.0,-999.0,-999,0.07,,,1.35,,2013-09-30 15:34:00,
2013-09-30 11:23:00,45.0,-99.9,-100.00,North,-999,-999.0,-999.0,-999,-99.99,,,1.52,,2013-09-30 17:23:00,
2013-09-30 11:34:00,45.0,-99.9,-100.00,North,-999,-999.0,-999.0,-999,-99.99,,,1.52,,2013-09-30 17:34:00,
2013-09-30 11:43:00,45.0,-99.9,-100.00,North,-999,-999.0,-999.0,-999,-99.99,,,1.52,,2013-09-30 17:43:00,
2013-09-30 12:22:00,45.0,-99.9,-100.00,North,-999,-999.0,-999.0,-999,0.05,,,1.56,,2013-09-30 18:22:00,
2013-09-30 12:32:00,45.0,-99.9,-100.00,North,-999,-999.0,-999.0,-999,0.05,,,1.56,,2013-09-30 18:32:00,
2013-09-30 12:42:00,45.0,-99.9,-100.00,North,-999,-999.0,-999.0,-999,0.05,,,1.56,,2013-09-30 18:42:00,
2013-09-30 13:23:00,47.0,-99.9,-100.00,North,-999,-999.0,-999.0,-999,0.00,,,1.54,,2013-09-30 19:23:00,
2013-09-30 13:32:00,47.0,-99.9,-100.00,North,-999,-999.0,-999.0,-999,0.00,,,1.54,,2013-09-30 19:32:00,
2013-09-30 13:42:00,47.0,-99.9,-100.00,North,-999,-999.0,-999.0,-999,0.00,,,1.54,,2013-09-30 19:42:00,
2013-09-30 14:23:00,50.0,-99.9,-100.00,North,-999,-999.0,-999.0,-999,0.00,,,-99.99,,2013-09-30 20:23:00,
2013-09-30 14:34:00,50.0,-99.9,-100.00,North,-999,-999.0,-999.0,-999,0.00,,,-99.99,,2013-09-30 20:34:00,
2013-09-30 14:44:00,50.0,-99.9,-100.00,North,-999,-999.0,-999.0,-999,0.00,,,-99.99,,2013-09-30 20:44:00,
2013-09-30 15:23:00,50.0,-99.9,-100.00,North,-999,-999.0,-999.0,-999,0.00,,,1.49,,2013-09-30 21:23:00,
2013-09-30 15:35:00,50.0,-99.9,-100.00,North,-999,-999.0,-999.0,-999,0.00,,,1.49,,2013-09-30 21:35:00,
2013-09-30 15:44:00,50.0,-99.9,-100.00,North,-999,-999.0,-999.0,-999,0.00,,,1.49,,2013-09-30 21:44:00,
2013-09-30 16:24:00,51.0,-99.9,-100.00,North,-999,-999.0,-999.0,-999,0.02,,,1.51,,2013-09-30 22:24:00,
2013-09-30 16:34:00,51.0,-99.9,-100.00,North,-999,-999.0,-999.0,-999,0.02,,,1.51,,2013-09-30 22:34:00,
2013-09-30 16:44:00,51.0,-99.9,-100.00,North,-999,-999.0,-999.0,-999,0.02,,,1.51,,2013-09-30 22:44:00,
2013-09-30 17:23:00,51.0,-99.9,-100.00,North,-999,-999.0,-999.0,-999,0.00,,,1.44,,2013-09-30 23:23:00,
2013-09-30 17:34:00,51.0,-99.9,-100.00,North,-999,-999.0,-999.0,-999,0.00,,,1.44,,2013-09-30 23:34:00,
2013-09-30 17:43:00,51.0,-99.9,-100.00,North,-999,-999.0,-999.0,-999,0.00,,,1.44,,2013-09-30 23:43:00,
2013-09-30 18:23:00,49.0,-99.9,-100.00,North,-999,-999.0,-999.0,-999,0.02,,,1.41,,2013-10-01 00:23:00,
2013-09-30 18:32:00,49.0,-99.9,-100.00,North,-999,-999.0,-999.0,-999,0.02,,,1.41,,2013-10-01 00:32:00,
2013-09-30 18:43:00,49.0,-99.9,-100.00,North,-999,-999.0,-999.0,-999,0.02,,,1.41,,2013-10-01 00:43:00,
2013-09-30 19:22:00,47.0,-99.9,-100.00,North,-999,-999.0,-999.0,-999,-99.99,,,1.40,,2013-10-01 01:22:00,
2013-09-30 19:33:00,47.0,-99.9,-100.00,North,-999,-999.0,-999.0,-999,-99.99,,,1.40,,2013-10-01 01:33:00,
2013-09-30 19:42:00,47.0,-99.9,-100.00,North,-999,-999.0,-999.0,-999,-99.99,,,1.40,,2013-10-01 01:42:00,
2013-09-30 20:23:00,47.0,-99.9,-100.00,North,-999,-999.0,-999.0,-999,0.00,,,1.23,,2013-10-01 02:23:00,
2013-09-30 20:33:00,47.0,-99.9,-100.00,North,-999,-999.0,-999.0,-999,0.00,,,1.23,,2013-10-01 02:33:00,
2013-09-30 20:43:00,47.0,-99.9,-100.00,North,-999,-999.0,-999.0,-999,0.00,,,1.23,,2013-10-01 02:43:00,
2013-09-30 21:22:00,46.0,-99.9,-100.00,North,-999,-999.0,-999.0,-999,0.00,,,1.23,,2013-10-01 03:22:00,
2013-09-30 21:35:00,46.0,-99.9,-100.00,North,-999,-999.0,-999.0,-999,0.00,,,1.23,,2013-10-01 03:35:00,
2013-09-30 21:44:00,46.0,-99.9,-100.00,North,-999,-999.0,-999.0,-999,0.00,,,1.23,,2013-10-01 03:44:00,
2013-09-30 22:24:00,44.0,-99.9,-100.00,North,-999,-999.0,-999.0,-999,0.01,,,1.17,,2013-10-01 04:24:00,